Regional Weather Roundup
Issued by NWS Goodland, KS

Home | Current Version | Previous Version | Text Only | Print | Product List | Glossary Off
Versions: 1 2 3 4 5 6 7 8 9 10 11 12 13 14 15 16 17 18 19 20 21 22 23 24 25 26 27 28 29 30 31 32 33 34 35 36 37 38 39 40 41 42 43 44 45 46 47 48 49 50

000
ASUS43 KGLD 250808
RWRGLD

GOODLAND FORECAST AREA HOURLY WEATHER ROUNDUP
NATIONAL WEATHER SERVICE GOODLAND KS
200 AM MDT THU AUG 25 2016

...OFFICIAL OBSERVATIONS...

CITY           SKY/WX    TMP DP  RH WIND       PRES   REMARKS
GOODLAND KS    CLOUDY    55  50  83 CALM      30.19S
HILL CITY KS   RAIN      61  59  93 CALM      30.16R FOG
IMPERIAL NEB   CLOUDY    57  49  74 NW5       30.19S
MCCOOK NEB     CLOUDY    58  51  78 CALM      30.16S
AKRON CO       CLOUDY    54  38  54 S9        30.22F
BURLINGTON CO  CLOUDY    55  44  66 NE3       30.21S
LIMON CO       CLEAR     42  34  73 N7        30.26S
$$

...UNOFFICIAL OBSERVATIONS...

CITY           SKY/WX    TMP DP  RH WIND       PRES   REMARKS
COLBY KS       CLOUDY    59  54  82 CALM      30.19S
NORTON KS      CLEAR     61  48  63 NW6       30.16R
SHARON SPRINGS   N/A     56  53  89 CALM        N/A
KIT CARSON CO    N/A     57  42  58 CALM        N/A
YUMA CO          N/A     47  41  80 CALM        N/A
$$



USA.gov is the U.S. government's official web portal to all federal, state and local government web resources and services.